C/2017 K1 ( PanSTARRS )

Japanese version
Home page
Updated on October 8, 2017

---------------------------------------------------------------------

* Profile

Discovery Date May 21, 2017
Magnitude 20.3 mag
Discoverer Pan-STARRS 1 telescope (Haleakala)

* Pictures

* Orbital Elements

Epoch 2018 Mar. 23.0 TT = JDT 2458200.5
T 2018 Mar. 17.43648 TT                                 MPCW
q   7.2790658            (2000.0)            P               Q
z  +0.0000281      Peri.    4.40044     -0.74626718     -0.58718340
 +/-0.0001576      Node   225.65200     -0.62331953     +0.45116070
e   0.9997957      Incl.  153.99577     -0.23357669     +0.67206375
From 34 observations 2017 May 21-July 15, mean residual 0".4.

* Magnitudes Graph

        m1 = 6.5 + 5 log d + 10.0 log r

---------------------------------------------------------------------

The orbital elements are published on M.P.E.C. 2017-T14.
The magnitudes graphs are made with Comet for Windows.

---------------------------------------------------------------------

Copyright(C) Seiichi Yoshida (comet@aerith.net). All rights reserved.